Wind_Speed
6 8 10 11 13 15 18 21 23 25 26 28 29 30 32 33 34 34 34 34 34 34 35 35 36 36 36 37 37 38 38 39 40 40 40 40 40 41 41 41 42 44 45 45
4 7 8 9 11 13 15 18 21 24 26 27 29 29 31 32 32 32 32 32 33 33 34 35 35 36 36 36 36 38 38 39 40 40 40 41 41 41 41 42 42 44 45 46
2 4 7 7 8 11 14 16 18 21 23 26 27 27 27 29 30 30 31 31 32 33 33 34 34 35 35 35 36 36 37 38 39 39 39 40 41 42 42 42 42 43 45 45
1 3 6 8 9 10 12 15 17 19 20 22 23 23 22 25 28 29 30 30 31 31 32 32 33 34 35 36 36 36 37 37 38 38 38 39 40 41 41 42 42 43 44 45
3 4 5 6 7 8 10 11 13 15 17 19 21 23 22 24 25 26 27 29 30 30 31 32 32 33 35 36 36 36 36 37 38 38 38 38 39 39 40 41 41 42 43 43
5 4 4 5 6 7 8 9 10 12 14 15 17 21 21 22 23 24 25 27 28 29 31 31 32 32 33 34 35 36 36 37 38 38 38 38 38 39 39 40 41 42 42 42
7 6 5 5 6 6 7 8 9 10 12 13 14 17 18 20 22 23 24 25 26 28 28 29 30 31 31 32 33 34 35 35 36 37 38 38 38 38 38 39 40 40 41 41
8 7 7 6 6 6 7 8 9 11 11 12 13 15 15 17 19 21 23 24 25 26 27 28 28 29 29 30 31 32 33 33 34 35 36 37 38 38 37 38 39 40 40 40
9 8 8 7 7 7 7 8 9 11 12 12 13 13 13 15 17 19 21 22 24 25 26 26 27 27 27 28 29 30 31 32 33 34 35 36 37 37 37 37 38 38 38 38
10 9 9 8 8 8 8 9 10 11 12 13 12 13 14 16 17 18 19 21 22 23 24 25 26 26 26 27 28 28 29 30 31 32 33 34 35 35 36 36 35 35 35 35
12 11 10 10 10 10 10 10 11 12 13 14 13 12 14 16 17 18 18 19 20 21 22 24 25 25 26 26 26 27 27 27 28 29 29 30 30 30 31 31 32 32 32 32
14 14 12 12 12 12 12 12 12 13 14 15 16 13 15 17 17 18 18 18 19 20 21 21 23 23 24 24 25 25 25 25 26 26 26 26 27 27 27 27 28 28 29 29
17 16 15 14 13 13 13 13 14 14 15 15 15 14 15 17 17 17 18 18 19 19 19 20 21 21 22 22 22 22 22 23 23 23 23 23 24 24 25 25 26 26 26 27
18 17 16 16 15 15 15 15 16 16 16 15 15 14 15 16 17 17 17 17 18 18 19 19 19 19 19 20 20 20 20 20 20 20 20 20 20 20 21 22 24 24 25 26
19 18 17 17 17 17 16 17 17 18 17 17 16 16 16 17 17 17 17 17 17 18 19 18 18 18 18 18 19 19 18 17 17 17 17 18 19 19 19 21 22 22 23 23
20 19 18 18 19 19 18 17 18 18 19 18 18 17 18 18 17 17 17 17 18 18 18 18 18 18 18 18 17 17 16 15 15 15 16 16 16 16 17 18 19 20 21 22
21 21 21 20 20 20 19 19 20 20 20 20 19 18 18 18 18 18 18 18 18 18 18 18 17 17 17 16 15 14 14 15 15 15 14 14 14 14 15 16 17 18 18 19
23 23 22 22 21 21 21 21 21 22 21 21 20 20 20 20 19 19 19 19 19 19 18 18 18 17 16 15 14 14 14 15 15 15 14 14 14 14 14 15 15 15 16 18
25 25 25 24 23 22 21 22 23 23 22 22 22 22 21 20 20 20 20 20 19 19 18 18 17 17 16 15 15 15 15 15 15 15 15 15 15 15 15 15 15 16 17 18
27 27 27 27 26 24 24 24 24 24 24 24 24 24 23 22 21 20 21 20 19 19 18 17 17 16 16 16 15 15 15 15 15 15 15 16 16 17 17 17 17 18 19 20
29 29 29 29 28 26 26 26 26 26 26 26 26 26 25 24 23 22 22 21 21 20 19 19 18 18 17 17 17 17 17 17 17 17 17 17 18 19 19 19 20 21 21 21
32 32 32 31 30 29 29 29 30 30 29 28 28 28 27 26 25 24 24 24 23 23 22 22 21 21 20 20 19 19 19 19 19 19 20 20 20 21 21 22 22 22 23 23
35 35 36 35 33 33 32 32 33 33 32 31 31 30 30 29 28 27 27 26 25 26 25 25 24 23 23 23 22 22 22 22 22 22 23 23 23 24 24 24 24 24 24 24
38 39 40 39 36 36 36 36 36 37 37 36 35 33 32 32 31 30 29 29 28 28 28 27 27 26 26 26 25 25 25 25 25 25 26 26 26 26 26 26 26 26 26 26
41 42 43 42 40 40 39 40 40 41 40 38 37 36 35 35 34 33 33 32 31 31 30 29 29 29 28 28 28 27 27 28 28 28 29 29 29 29 28 28 28 27 28 28
41 44 45 44 43 44 43 42 43 42 41 40 40 38 38 38 37 37 36 35 34 33 32 32 31 31 31 31 31 31 31 31 31 31 31 31 31 31 30 29 29 29 29 30
Wind_Direction
218 223 229 233 235 236 237 237 238 240 239 238 236 238 240 242 243 244 246 248 249 250 250 252 254 256 257 257 258 258 259 260 261 262 263 263 263 264 264 264 261 258 256 256
230 228 229 234 239 240 239 239 240 242 243 242 242 243 244 244 244 245 248 249 249 250 252 254 256 257 257 258 259 260 261 262 263 263 264 264 264 264 264 264 263 259 257 257
260 241 236 237 243 245 244 244 244 246 246 246 245 244 245 246 246 247 248 249 251 253 254 256 258 259 259 260 261 263 263 264 265 265 265 265 264 264 264 264 263 261 259 259
317 263 255 253 253 252 252 249 249 250 247 245 243 244 244 248 249 250 251 252 254 255 256 257 259 260 261 262 263 265 265 266 265 265 266 266 265 264 263 263 263 262 260 260
347 314 277 265 262 263 259 253 251 250 248 246 246 249 248 251 252 252 254 256 257 257 258 260 261 263 264 264 265 266 267 267 266 266 267 267 266 264 263 263 263 263 262 262
356 341 309 284 275 272 264 258 253 250 250 251 253 254 253 253 254 255 257 258 259 261 261 262 263 265 265 266 266 267 268 267 266 266 266 267 266 265 263 263 263 263 262 262
354 344 331 307 292 284 272 265 262 258 257 259 260 261 261 257 257 259 261 262 261 261 262 263 265 266 266 267 267 267 268 267 266 265 265 266 266 266 265 264 264 264 264 263
354 345 330 312 301 293 282 274 273 270 267 265 266 270 269 264 263 263 263 263 263 263 264 265 267 268 268 268 268 268 268 268 267 265 265 265 266 266 265 265 265 265 264 264
353 348 338 323 311 301 294 287 282 279 277 274 273 274 273 271 269 268 266 266 266 266 266 267 268 268 270 270 271 270 270 270 269 268 267 267 266 265 265 265 265 265 264 264
349 346 344 335 325 314 304 296 290 289 288 283 278 277 276 275 275 274 272 270 269 269 268 267 268 269 271 273 273 274 274 273 273 272 270 269 268 267 266 266 265 264 264 265
342 335 330 325 320 315 309 301 294 291 291 291 286 282 281 279 277 274 274 274 273 273 273 271 271 271 272 274 275 275 276 275 275 275 273 270 269 267 267 266 265 265 266 266
339 332 322 317 313 307 305 301 296 294 295 293 291 291 285 283 280 278 279 279 278 278 279 277 277 277 276 277 278 278 277 278 278 277 275 272 268 266 266 266 266 266 266 265
334 331 323 314 309 304 301 297 296 297 297 297 296 296 288 288 286 284 283 282 281 282 282 281 281 281 279 279 280 281 280 281 281 279 275 272 269 267 266 265 265 265 266 268
327 325 321 315 307 302 299 297 296 296 298 297 297 292 287 287 287 287 287 287 285 285 285 284 283 283 280 280 282 282 283 284 283 281 278 275 273 271 269 268 267 267 267 267
321 319 315 312 306 301 299 298 296 296 297 296 295 290 288 289 288 286 287 288 289 288 287 286 286 285 284 285 285 284 284 284 286 285 283 280 277 273 272 273 271 270 268 268
318 316 312 309 305 301 299 297 295 295 295 295 294 290 288 289 288 287 288 290 290 289 288 286 285 286 287 288 286 283 280 283 286 287 286 286 282 277 278 277 275 273 272 272
311 310 308 306 302 302 300 296 295 295 295 294 292 291 289 288 288 288 289 290 292 290 288 286 286 287 288 287 286 282 281 283 286 286 286 288 287 284 283 281 279 276 275 275
305 305 304 303 301 301 301 296 293 293 293 291 289 289 288 288 287 288 289 288 288 288 286 284 284 286 287 286 283 284 284 285 286 286 287 288 287 287 288 288 286 283 283 282
299 302 303 302 300 300 298 296 293 291 290 288 289 289 289 289 286 287 288 288 287 286 285 283 282 282 283 282 283 286 286 286 288 289 289 290 290 291 290 289 288 288 288 287
295 297 299 299 299 299 299 295 291 290 288 286 285 286 287 286 284 284 285 286 287 286 285 283 280 280 280 281 282 284 284 285 288 290 290 290 291 292 292 290 289 291 292 290
291 291 293 293 294 296 296 294 292 289 288 286 284 283 283 284 284 282 281 281 283 283 283 281 279 277 277 278 280 280 280 282 285 287 288 289 290 291 292 291 290 290 292 292
288 288 288 289 290 293 291 290 289 287 285 284 283 281 280 280 280 279 278 278 278 279 279 279 278 276 274 274 275 275 276 279 282 285 287 288 288 290 291 290 289 289 289 290
285 285 285 286 287 288 288 287 286 285 283 282 282 282 279 277 276 276 276 275 274 274 276 276 275 274 272 271 271 271 273 276 280 282 285 287 288 290 290 290 289 288 288 289
282 282 282 283 283 282 282 282 282 282 281 281 281 280 278 276 275 275 274 274 272 272 273 273 272 272 270 270 269 269 271 274 278 281 283 286 287 288 289 289 289 288 288 289
282 281 281 281 280 278 279 279 280 280 281 279 278 278 276 275 274 273 274 274 272 271 271 272 272 271 270 270 270 270 271 274 277 280 282 284 286 287 287 288 287 287 287 289
281 281 281 280 279 278 277 278 279 279 279 278 276 275 274 274 273 272 272 273 272 269 268 270 271 271 270 270 270 271 272 273 276 278 281 283 285 285 285 285 285 285 287 289
Height
5682 5684 5684 5685 5686 5688 5689 5691 5694 5696 5698 5701 5703 5706 5709 5711 5714 5716 5718 5720 5723 5724 5726 5728 5729 5731 5732 5733 5734 5735 5735 5736 5736 5737 5737 5738 5738 5738 5738 5738 5739 5741 5743 5746
5683 5684 5684 5684 5685 5686 5688 5689 5691 5693 5695 5697 5699 5702 5704 5706 5708 5710 5712 5714 5716 5718 5719 5720 5722 5723 5724 5725 5726 5726 5727 5727 5727 5728 5728 5728 5728 5728 5728 5729 5730 5731 5733 5736
5684 5684 5684 5684 5685 5685 5687 5688 5689 5690 5692 5693 5695 5698 5700 5702 5703 5705 5707 5708 5710 5711 5712 5713 5714 5715 5716 5717 5718 5718 5718 5719 5719 5719 5719 5719 5719 5719 5719 5720 5721 5722 5724 5726
5684 5684 5684 5684 5684 5685 5685 5686 5687 5688 5689 5690 5692 5694 5697 5698 5699 5700 5702 5703 5704 5705 5706 5707 5707 5708 5709 5709 5710 5710 5710 5710 5710 5710 5710 5710 5710 5710 5710 5711 5712 5713 5714 5716
5686 5685 5684 5684 5684 5684 5684 5685 5685 5686 5686 5688 5689 5691 5694 5694 5695 5696 5697 5697 5698 5699 5699 5700 5700 5701 5701 5701 5702 5702 5701 5701 5701 5701 5701 5701 5701 5701 5701 5702 5703 5704 5705 5707
5686 5686 5685 5684 5684 5684 5684 5684 5684 5684 5685 5687 5687 5687 5690 5690 5691 5691 5692 5692 5692 5693 5693 5693 5693 5693 5693 5693 5693 5693 5693 5693 5692 5692 5692 5692 5692 5692 5692 5693 5694 5695 5696 5697
5687 5686 5685 5685 5684 5684 5684 5684 5684 5683 5683 5684 5684 5684 5687 5686 5686 5686 5687 5686 5686 5686 5687 5687 5687 5687 5686 5686 5686 5685 5685 5684 5684 5683 5683 5683 5683 5683 5683 5684 5684 5685 5687 5688
5688 5687 5686 5685 5684 5684 5683 5683 5683 5682 5682 5682 5681 5681 5684 5683 5682 5681 5681 5681 5680 5681 5681 5681 5681 5680 5679 5679 5678 5677 5677 5676 5675 5675 5675 5674 5674 5674 5675 5675 5676 5676 5677 5679
5688 5688 5686 5685 5684 5683 5682 5681 5681 5680 5679 5679 5679 5679 5680 5678 5677 5677 5676 5676 5675 5675 5675 5675 5674 5674 5673 5672 5671 5670 5669 5668 5667 5667 5666 5666 5665 5665 5666 5666 5667 5668 5669 5669
5689 5688 5686 5685 5683 5682 5681 5680 5679 5678 5676 5676 5676 5676 5676 5674 5673 5672 5671 5671 5670 5670 5669 5668 5668 5667 5666 5665 5664 5663 5662 5661 5660 5659 5658 5657 5657 5657 5657 5658 5659 5660 5661 5661
5689 5687 5686 5684 5682 5681 5680 5679 5677 5675 5674 5673 5672 5675 5672 5670 5669 5668 5667 5666 5665 5664 5663 5662 5661 5661 5660 5659 5658 5656 5655 5654 5653 5651 5650 5649 5649 5649 5649 5650 5651 5652 5652 5653
5688 5686 5684 5683 5681 5679 5678 5676 5675 5674 5673 5670 5669 5673 5668 5667 5665 5664 5663 5662 5660 5659 5658 5656 5655 5654 5653 5652 5651 5650 5648 5647 5646 5644 5643 5642 5642 5642 5642 5643 5643 5644 5645 5646
5686 5684 5682 5681 5681 5678 5675 5674 5672 5671 5670 5667 5666 5669 5665 5663 5661 5660 5659 5657 5656 5655 5653 5652 5650 5649 5647 5646 5645 5643 5642 5641 5639 5638 5637 5636 5636 5636 5636 5636 5636 5637 5638 5638
5684 5682 5680 5679 5676 5674 5673 5671 5669 5667 5666 5665 5664 5663 5662 5659 5657 5656 5655 5653 5651 5650 5649 5647 5645 5644 5642 5641 5639 5638 5637 5635 5634 5633 5632 5631 5630 5630 5629 5630 5630 5631 5631 5632
5681 5679 5677 5675 5672 5671 5670 5668 5666 5664 5662 5661 5660 5658 5657 5655 5654 5652 5651 5649 5647 5646 5644 5643 5641 5639 5637 5636 5635 5633 5632 5631 5629 5628 5627 5626 5625 5625 5624 5624 5624 5624 5625 5626
5678 5676 5674 5672 5669 5667 5666 5665 5662 5660 5658 5657 5655 5654 5653 5651 5649 5648 5646 5645 5643 5642 5640 5638 5637 5635 5633 5632 5630 5629 5628 5627 5626 5624 5623 5622 5621 5620 5620 5619 5619 5619 5619 5620
5675 5672 5670 5668 5666 5664 5663 5661 5658 5656 5654 5652 5650 5650 5648 5647 5645 5643 5642 5641 5639 5637 5635 5634 5632 5631 5629 5627 5626 5625 5624 5623 5622 5621 5619 5618 5617 5616 5616 5615 5614 5614 5614 5614
5671 5667 5665 5663 5662 5660 5661 5656 5654 5651 5650 5648 5645 5644 5643 5642 5640 5639 5637 5635 5634 5632 5630 5629 5628 5626 5625 5624 5623 5622 5621 5620 5618 5617 5616 5615 5613 5612 5612 5611 5610 5609 5609 5608
5665 5662 5660 5658 5655 5655 5655 5651 5648 5646 5645 5643 5641 5639 5638 5637 5636 5634 5632 5630 5629 5627 5625 5624 5623 5622 5621 5620 5619 5618 5617 5616 5615 5613 5612 5611 5610 5609 5608 5607 5606 5605 5604 5603
5659 5656 5655 5652 5649 5648 5649 5645 5641 5641 5639 5637 5635 5634 5632 5631 5630 5630 5627 5625 5624 5622 5621 5619 5618 5617 5617 5616 5615 5614 5613 5612 5611 5610 5609 5607 5606 5605 5604 5602 5601 5600 5599 5598
5651 5649 5647 5644 5641 5642 5641 5637 5635 5634 5633 5631 5628 5627 5626 5625 5624 5624 5622 5620 5618 5617 5616 5615 5614 5613 5612 5611 5610 5610 5609 5608 5606 5605 5604 5603 5602 5601 5599 5598 5596 5595 5594 5593
5643 5641 5639 5636 5635 5637 5632 5630 5628 5626 5624 5622 5621 5620 5619 5618 5617 5616 5615 5614 5612 5611 5611 5610 5609 5608 5607 5606 5605 5604 5604 5603 5602 5601 5600 5598 5597 5596 5594 5592 5591 5589 5588 5586
5634 5632 5629 5629 5630 5627 5623 5620 5618 5617 5615 5614 5613 5612 5611 5610 5609 5608 5607 5606 5606 5605 5604 5603 5602 5602 5601 5600 5599 5599 5598 5597 5596 5595 5594 5592 5591 5589 5588 5586 5584 5583 5581 5579
5624 5621 5619 5618 5619 5617 5613 5610 5608 5606 5605 5604 5603 5602 5601 5601 5600 5600 5599 5598 5597 5597 5596 5595 5595 5594 5594 5593 5592 5592 5591 5590 5590 5588 5587 5586 5584 5583 5581 5579 5577 5576 5574 5572
5613 5609 5606 5605 5606 5604 5603 5600 5597 5596 5594 5593 5593 5592 5591 5591 5591 5590 5589 5589 5588 5588 5587 5587 5587 5586 5586 5585 5584 5584 5583 5583 5582 5581 5580 5578 5577 5575 5573 5571 5569 5568 5566 5564
5602 5597 5593 5593 5593 5589 5590 5588 5585 5583 5583 5582 5581 5581 5580 5579 5579 5579 5579 5578 5578 5578 5578 5578 5577 5577 5577 5576 5576 5575 5575 5574 5573 5572 5571 5570 5568 5566 5565 5563 5561 5559 5558 5555